Time,TemperatureF,DewpointF,PressureIn,WindDirection,WindDirectionDegrees,WindSpeedMPH,WindSpeedGustMPH,Humidity,HourlyPrecipIn,Conditions,Clouds,dailyrainin,SoftwareType,DateUTC
2009-11-07 00:00:00,47.5,46.9,28.47,SSE,158,0.0,0.0,98,0.00,CLR,FEW,0.00,WeatherDisplay:10.37,2009-11-07 08:00:00,
2009-11-07 00:05:00,47.5,46.9,28.47,SSE,158,0.0,0.0,98,0.00,CLR,FEW,0.00,WeatherDisplay:10.37,2009-11-07 08:05:00,
2009-11-07 00:15:00,47.5,46.9,28.47,SSE,158,0.0,0.0,98,0.00,CLR,FEW,0.00,WeatherDisplay:10.37,2009-11-07 08:15:00,
2009-11-07 00:20:00,47.3,46.8,28.47,SSE,158,0.0,0.0,98,0.00,CLR,FEW,0.00,WeatherDisplay:10.37,2009-11-07 08:20:00,
2009-11-07 00:30:00,47.1,46.6,28.47,SSE,158,0.0,0.0,98,0.00,CLR,FEW,0.00,WeatherDisplay:10.37,2009-11-07 08:30:00,
2009-11-07 00:40:00,46.9,46.4,28.47,SSE,158,0.0,2.0,98,0.00,CLR,FEW,0.00,WeatherDisplay:10.37,2009-11-07 08:40:00,
2009-11-07 00:50:00,47.1,46.6,28.47,SW,225,0.0,4.0,98,0.00,CLR,FEW,0.00,WeatherDisplay:10.37,2009-11-07 08:50:00,
2009-11-07 01:00:00,47.1,46.0,28.47,WNW,292,0.0,0.0,96,0.00,CLR,FEW,0.00,WeatherDisplay:10.37,2009-11-07 09:00:00,
2009-11-07 01:05:00,47.1,46.1,28.47,WNW,292,0.0,0.0,96,0.00,CLR,FEW,0.00,WeatherDisplay:10.37,2009-11-07 09:05:00,
2009-11-07 01:10:00,47.1,46.0,28.47,WNW,292,0.0,0.0,96,0.00,CLR,FEW,0.00,WeatherDisplay:10.37,2009-11-07 09:10:00,
2009-11-07 01:25:00,47.3,44.8,28.47,NW,315,0.0,3.0,91,0.00,CLR,FEW,0.00,WeatherDisplay:10.37,2009-11-07 09:25:00,
2009-11-07 01:30:00,47.5,43.6,28.47,NW,315,0.0,2.0,86,0.00,CLR,FEW,0.00,WeatherDisplay:10.37,2009-11-07 09:30:00,
2009-11-07 01:40:00,48.0,41.5,28.47,NW,315,0.0,3.0,78,0.00,CLR,FEW,0.00,WeatherDisplay:10.37,2009-11-07 09:40:00,
2009-11-07 01:50:00,48.0,40.8,28.44,NW,315,0.0,2.0,76,0.00,CLR,FEW,0.00,WeatherDisplay:10.37,2009-11-07 09:50:00,
2009-11-07 02:00:00,48.2,40.3,28.44,NW,315,0.0,0.0,74,0.00,CLR,FEW,0.00,WeatherDisplay:10.37,2009-11-07 10:00:00,
2009-11-07 02:05:00,48.2,40.0,28.44,NW,315,1.0,3.0,73,0.00,CLR,FEW,0.00,WeatherDisplay:10.37,2009-11-07 10:05:00,
2009-11-07 02:10:00,48.4,39.8,28.44,NW,315,1.0,3.0,72,0.00,CLR,FEW,0.00,WeatherDisplay:10.37,2009-11-07 10:10:00,
2009-11-07 02:20:00,48.2,39.6,28.44,NW,315,0.0,3.0,72,0.00,CLR,FEW,0.00,WeatherDisplay:10.37,2009-11-07 10:20:00,
2009-11-07 02:30:00,48.2,40.3,28.44,NW,315,0.0,2.0,74,0.00,CLR,FEW,0.00,WeatherDisplay:10.37,2009-11-07 10:30:00,
2009-11-07 02:40:00,48.0,40.5,28.44,NW,315,0.0,0.0,75,0.00,CLR,FEW,0.00,WeatherDisplay:10.37,2009-11-07 10:40:00,
2009-11-07 02:50:00,47.7,40.1,28.44,NW,315,0.0,3.0,75,0.00,CLR,FEW,0.00,WeatherDisplay:10.37,2009-11-07 10:50:00,
2009-11-07 03:00:00,47.7,39.8,28.44,NW,315,0.0,3.0,74,0.00,CLR,FEW,0.00,WeatherDisplay:10.37,2009-11-07 11:00:00,
2009-11-07 03:05:00,47.7,39.4,28.44,NW,315,0.0,2.0,73,0.00,CLR,FEW,0.00,WeatherDisplay:10.37,2009-11-07 11:05:00,
2009-11-07 03:10:00,47.7,39.4,28.44,NW,315,0.0,0.0,73,0.00,CLR,FEW,0.00,WeatherDisplay:10.37,2009-11-07 11:10:00,
2009-11-07 03:20:00,47.8,38.9,28.44,NW,315,0.0,3.0,71,0.00,CLR,FEW,0.00,WeatherDisplay:10.37,2009-11-07 11:20:00,
2009-11-07 03:30:00,47.8,38.9,28.44,NW,315,0.0,0.0,71,0.00,CLR,FEW,0.00,WeatherDisplay:10.37,2009-11-07 11:30:00,
2009-11-07 03:40:00,48.0,38.7,28.44,NW,315,0.0,0.0,70,0.00,CLR,FEW,0.00,WeatherDisplay:10.37,2009-11-07 11:40:00,
2009-11-07 03:50:00,48.0,39.1,28.44,WNW,292,0.0,3.0,71,0.00,CLR,FEW,0.00,WeatherDisplay:10.37,2009-11-07 11:50:00,
2009-11-07 04:00:00,48.0,39.0,28.44,West,280,0.0,0.0,71,0.00,CLR,FEW,0.00,WeatherDisplay:10.37,2009-11-07 12:00:00,
2009-11-07 04:05:00,47.8,38.9,28.44,WNW,291,0.0,0.0,71,0.00,CLR,FEW,0.00,WeatherDisplay:10.37,2009-11-07 12:05:00,
2009-11-07 04:10:00,47.5,38.9,28.44,WNW,292,0.0,0.0,72,0.00,CLR,FEW,0.00,WeatherDisplay:10.37,2009-11-07 12:10:00,
2009-11-07 04:20:00,47.3,39.1,28.44,WNW,292,0.0,0.0,73,0.00,CLR,FEW,0.00,WeatherDisplay:10.37,2009-11-07 12:20:00,
2009-11-07 04:30:00,47.1,38.9,28.44,WNW,292,0.0,0.0,73,0.00,CLR,FEW,0.00,WeatherDisplay:10.37,2009-11-07 12:30:00,
2009-11-07 04:40:00,46.9,38.4,28.44,WNW,292,0.0,0.0,72,0.00,CLR,FEW,0.00,WeatherDisplay:10.37,2009-11-07 12:40:00,
2009-11-07 04:50:00,46.8,38.6,28.44,WNW,292,0.0,0.0,73,0.00,CLR,FEW,0.00,WeatherDisplay:10.37,2009-11-07 12:50:00,
2009-11-07 05:00:00,46.6,38.4,28.44,WNW,292,0.0,0.0,73,0.00,CLR,FEW,0.00,WeatherDisplay:10.37,2009-11-07 13:00:00,
2009-11-07 05:05:00,46.6,38.4,28.44,WNW,292,0.0,0.0,73,0.00,CLR,FEW,0.00,WeatherDisplay:10.37,2009-11-07 13:05:00,
2009-11-07 05:10:00,46.6,38.0,28.44,WNW,292,0.0,0.0,72,0.00,CLR,FEW,0.00,WeatherDisplay:10.37,2009-11-07 13:10:00,
2009-11-07 05:20:00,46.6,37.3,28.44,WNW,292,0.0,0.0,70,0.00,CLR,FEW,0.00,WeatherDisplay:10.37,2009-11-07 13:20:00,
2009-11-07 05:30:00,46.6,37.3,28.44,WNW,292,0.0,0.0,70,0.00,CLR,FEW,0.00,WeatherDisplay:10.37,2009-11-07 13:30:00,
2009-11-07 05:40:00,46.6,37.0,28.44,WNW,292,0.0,0.0,69,0.00,CLR,FEW,0.00,WeatherDisplay:10.37,2009-11-07 13:40:00,
2009-11-07 05:50:00,46.4,38.2,28.44,WNW,292,0.0,0.0,73,0.00,CLR,FEW,0.00,WeatherDisplay:10.37,2009-11-07 13:50:00,
2009-11-07 06:00:00,46.0,38.6,28.44,WNW,292,0.0,0.0,75,0.00,CLR,FEW,0.00,WeatherDisplay:10.37,2009-11-07 14:00:00,
2009-11-07 06:05:00,46.0,38.6,28.41,WNW,292,0.0,0.0,75,0.00,CLR,FEW,0.00,WeatherDisplay:10.37,2009-11-07 14:05:00,
2009-11-07 06:10:00,45.9,38.7,28.41,WNW,292,0.0,0.0,76,0.00,CLR,FEW,0.00,WeatherDisplay:10.37,2009-11-07 14:10:00,
2009-11-07 06:20:00,45.9,38.7,28.44,WNW,292,0.0,0.0,76,0.00,CLR,FEW,0.00,WeatherDisplay:10.37,2009-11-07 14:20:00,
2009-11-07 06:30:00,46.2,38.4,28.44,WNW,292,0.0,0.0,74,0.00,CLR,FEW,0.00,WeatherDisplay:10.37,2009-11-07 14:30:00,
2009-11-07 06:40:00,46.2,38.4,28.44,WNW,292,0.0,0.0,74,0.00,CLR,FEW,0.00,WeatherDisplay:10.37,2009-11-07 14:40:00,
2009-11-07 06:55:00,46.6,38.4,28.44,WNW,292,0.0,0.0,73,0.00,CLR,FEW,0.00,WeatherDisplay:10.37,2009-11-07 14:55:00,
2009-11-07 07:00:00,46.7,37.8,28.44,WNW,292,0.0,2.0,71,0.00,CLR,FEW,0.00,WeatherDisplay:10.37,2009-11-07 15:00:00,
2009-11-07 07:05:00,46.8,38.2,28.44,WNW,292,0.0,2.0,72,0.00,CLR,FEW,0.00,WeatherDisplay:10.37,2009-11-07 15:05:00,
2009-11-07 07:10:00,46.9,38.4,28.44,WNW,292,0.0,3.0,72,0.00,CLR,FEW,0.00,WeatherDisplay:10.37,2009-11-07 15:10:00,
2009-11-07 07:20:00,47.3,39.1,28.47,WNW,292,0.0,0.0,73,0.00,CLR,FEW,0.00,WeatherDisplay:10.37,2009-11-07 15:20:00,
2009-11-07 07:30:00,47.4,38.5,28.47,WNW,292,0.0,0.0,71,0.00,CLR,FEW,0.00,WeatherDisplay:10.37,2009-11-07 15:30:00,
2009-11-07 07:45:00,47.5,38.2,28.44,NW,306,0.0,0.0,70,0.00,CLR,FEW,0.00,WeatherDisplay:10.37,2009-11-07 15:45:00,
2009-11-07 07:50:00,47.5,38.5,28.47,NW,315,0.0,0.0,71,0.00,CLR,FEW,0.00,WeatherDisplay:10.37,2009-11-07 15:50:00,
2009-11-07 08:00:00,47.7,38.7,28.47,NNE,28,0.0,0.0,71,0.00,CLR,FEW,0.00,WeatherDisplay:10.37,2009-11-07 16:00:00,
2009-11-07 08:05:00,47.8,39.2,28.47,ENE,68,0.0,0.0,72,0.00,CLR,FEW,0.00,WeatherDisplay:10.37,2009-11-07 16:05:00,
2009-11-07 08:10:00,48.0,39.4,28.47,North,5,0.0,3.0,72,0.00,CLR,FEW,0.00,WeatherDisplay:10.37,2009-11-07 16:10:00,
2009-11-07 08:20:00,48.2,39.6,28.47,WNW,292,0.0,0.0,72,0.00,CLR,FEW,0.00,WeatherDisplay:10.37,2009-11-07 16:20:00,
2009-11-07 08:35:00,48.4,40.1,28.47,NW,305,0.0,3.0,73,0.00,CLR,FEW,0.00,WeatherDisplay:10.37,2009-11-07 16:35:00,
2009-11-07 08:40:00,48.6,40.3,28.47,WNW,298,0.0,3.0,73,0.00,CLR,FEW,0.00,WeatherDisplay:10.37,2009-11-07 16:40:00,
2009-11-07 08:50:00,48.9,40.6,28.47,WNW,292,0.0,0.0,73,0.00,CLR,FEW,0.00,WeatherDisplay:10.37,2009-11-07 16:50:00,
2009-11-07 09:00:00,49.3,41.0,28.47,WNW,292,0.0,0.0,73,0.00,CLR,FEW,0.00,WeatherDisplay:10.37,2009-11-07 17:00:00,
2009-11-07 09:05:00,49.5,41.2,28.47,WNW,292,0.0,0.0,73,0.00,CLR,FEW,0.00,WeatherDisplay:10.37,2009-11-07 17:05:00,
2009-11-07 09:15:00,49.8,41.2,28.47,WNW,292,0.0,0.0,72,0.00,CLR,FEW,0.00,WeatherDisplay:10.37,2009-11-07 17:15:00,
2009-11-07 09:20:00,50.0,41.0,28.47,WNW,292,0.0,0.0,71,0.00,CLR,FEW,0.00,WeatherDisplay:10.37,2009-11-07 17:20:00,
2009-11-07 09:30:00,50.4,40.6,28.47,WNW,292,0.0,0.0,69,0.00,CLR,FEW,0.00,WeatherDisplay:10.37,2009-11-07 17:30:00,
2009-11-07 09:40:00,50.9,40.3,28.50,NNE,29,0.0,2.0,67,0.00,CLR,FEW,0.00,WeatherDisplay:10.37,2009-11-07 17:40:00,
2009-11-07 09:50:00,51.4,40.1,28.47,NNE,25,0.0,0.0,65,0.00,CLR,FEW,0.00,WeatherDisplay:10.37,2009-11-07 17:50:00,
2009-11-07 10:00:00,52.0,41.0,28.47,NNE,22,0.0,0.0,66,0.00,CLR,FEW,0.00,WeatherDisplay:10.37,2009-11-07 18:00:00,
2009-11-07 10:05:00,52.5,41.4,28.50,North,359,0.0,3.0,66,0.00,CLR,FEW,0.00,WeatherDisplay:10.37,2009-11-07 18:05:00,
2009-11-07 10:10:00,53.4,41.5,28.50,NW,324,0.0,0.0,64,0.00,CLR,FEW,0.00,WeatherDisplay:10.37,2009-11-07 18:10:00,
2009-11-07 10:20:00,54.1,41.0,28.50,NW,315,0.0,0.0,61,0.00,CLR,FEW,0.00,WeatherDisplay:10.37,2009-11-07 18:20:00,
2009-11-07 10:30:00,53.8,41.9,28.50,WNW,301,0.0,0.0,64,0.00,CLR,FEW,0.00,WeatherDisplay:10.37,2009-11-07 18:30:00,
2009-11-07 10:40:00,53.8,41.9,28.50,North,7,0.0,0.0,64,0.00,CLR,FEW,0.00,WeatherDisplay:10.37,2009-11-07 18:40:00,
2009-11-07 10:50:00,54.9,43.4,28.50,NNE,25,0.0,0.0,65,0.00,CLR,FEW,0.00,WeatherDisplay:10.37,2009-11-07 18:50:00,
2009-11-07 11:00:00,56.3,44.3,28.50,NNE,22,0.0,0.0,64,0.00,CLR,FEW,0.00,WeatherDisplay:10.37,2009-11-07 19:00:00,
2009-11-07 11:05:00,56.3,43.4,28.50,NNE,22,0.0,0.0,62,0.00,CLR,FEW,0.00,WeatherDisplay:10.37,2009-11-07 19:05:00,
2009-11-07 11:15:00,56.7,44.2,28.50,NNE,22,0.0,0.0,63,0.00,CLR,FEW,0.00,WeatherDisplay:10.37,2009-11-07 19:15:00,
2009-11-07 11:20:00,56.7,43.9,28.50,NNE,22,0.0,0.0,62,0.00,CLR,FEW,0.00,WeatherDisplay:10.37,2009-11-07 19:20:00,
2009-11-07 11:30:00,56.7,43.9,28.50,NNE,22,0.0,0.0,62,0.00,CLR,FEW,0.00,WeatherDisplay:10.37,2009-11-07 19:30:00,
2009-11-07 11:45:00,56.3,43.4,28.50,NW,321,0.0,0.0,62,0.00,CLR,FEW,0.00,WeatherDisplay:10.37,2009-11-07 19:45:00,
2009-11-07 11:50:00,56.3,43.9,28.47,North,355,0.0,0.0,63,0.00,CLR,FEW,0.00,WeatherDisplay:10.37,2009-11-07 19:50:00,
2009-11-07 12:00:00,55.8,42.9,28.47,North,0,0.0,0.0,62,0.00,CLR,FEW,0.00,WeatherDisplay:10.37,2009-11-07 20:00:00,
2009-11-07 12:05:00,55.6,43.2,28.47,North,0,0.0,0.0,63,0.00,CLR,FEW,0.00,WeatherDisplay:10.37,2009-11-07 20:05:00,
2009-11-07 12:10:00,55.6,44.0,28.47,North,0,0.0,0.0,65,0.00,CLR,FEW,0.00,WeatherDisplay:10.37,2009-11-07 20:10:00,
2009-11-07 12:20:00,55.8,43.3,28.47,North,0,0.0,0.0,63,0.00,CLR,FEW,0.00,WeatherDisplay:10.37,2009-11-07 20:20:00,
2009-11-07 12:30:00,55.6,42.3,28.47,North,0,0.0,2.0,61,0.00,CLR,FEW,0.00,WeatherDisplay:10.37,2009-11-07 20:30:00,
2009-11-07 12:40:00,56.1,42.4,28.47,North,0,0.0,0.0,60,0.00,CLR,FEW,0.00,WeatherDisplay:10.37,2009-11-07 20:40:00,
2009-11-07 12:50:00,56.2,41.1,28.44,North,0,0.0,3.0,57,0.00,CLR,FEW,0.00,WeatherDisplay:10.37,2009-11-07 20:50:00,
2009-11-07 13:00:00,56.1,40.2,28.44,North,0,0.0,2.0,55,0.00,CLR,FEW,0.00,WeatherDisplay:10.37,2009-11-07 21:00:00,
2009-11-07 13:05:00,56.3,40.3,28.47,North,0,0.0,3.0,55,0.00,CLR,FEW,0.00,WeatherDisplay:10.37,2009-11-07 21:05:00,
2009-11-07 13:10:00,56.3,40.3,28.47,North,0,0.0,3.0,55,0.00,CLR,FEW,0.00,WeatherDisplay:10.37,2009-11-07 21:10:00,
2009-11-07 13:20:00,56.1,40.6,28.44,North,0,0.0,0.0,56,0.00,CLR,FEW,0.00,WeatherDisplay:10.37,2009-11-07 21:20:00,
2009-11-07 13:30:00,55.8,41.6,28.44,North,0,0.0,0.0,59,0.00,CLR,FEW,0.00,WeatherDisplay:10.37,2009-11-07 21:30:00,
2009-11-07 13:40:00,55.6,43.6,28.44,North,0,0.0,0.0,64,0.00,CLR,FEW,0.00,WeatherDisplay:10.37,2009-11-07 21:40:00,
2009-11-07 13:50:00,55.2,43.3,28.44,North,0,0.0,0.0,64,0.00,CLR,FEW,0.00,WeatherDisplay:10.37,2009-11-07 21:50:00,
2009-11-07 14:00:00,55.2,44.1,28.44,North,0,0.0,0.0,66,0.00,CLR,FEW,0.00,WeatherDisplay:10.37,2009-11-07 22:00:00,
2009-11-07 14:05:00,55.2,43.6,28.44,North,0,0.0,0.0,65,0.00,CLR,FEW,0.00,WeatherDisplay:10.37,2009-11-07 22:05:00,
2009-11-07 14:10:00,54.9,42.9,28.44,North,0,0.0,0.0,64,0.00,CLR,FEW,0.00,WeatherDisplay:10.37,2009-11-07 22:10:00,
2009-11-07 14:20:00,54.5,42.6,28.44,North,0,0.0,2.0,64,0.00,CLR,FEW,0.00,WeatherDisplay:10.37,2009-11-07 22:20:00,
2009-11-07 14:30:00,54.1,43.0,28.44,North,0,0.0,3.0,66,0.00,CLR,FEW,0.00,WeatherDisplay:10.37,2009-11-07 22:30:00,
2009-11-07 14:40:00,53.6,42.1,28.47,North,0,0.0,0.0,65,0.00,CLR,FEW,0.00,WeatherDisplay:10.37,2009-11-07 22:40:00,
2009-11-07 14:50:00,53.2,42.6,28.44,North,0,0.0,0.0,67,0.00,CLR,FEW,0.00,WeatherDisplay:10.37,2009-11-07 22:50:00,
2009-11-07 15:00:00,52.9,42.6,28.44,North,0,0.0,0.0,68,0.00,CLR,FEW,0.00,WeatherDisplay:10.37,2009-11-07 23:00:00,
2009-11-07 15:05:00,52.7,42.0,28.47,North,0,0.0,0.0,67,0.00,CLR,FEW,0.00,WeatherDisplay:10.37,2009-11-07 23:05:00,
2009-11-07 15:10:00,52.7,41.7,28.47,North,0,0.0,3.0,66,0.00,CLR,FEW,0.00,WeatherDisplay:10.37,2009-11-07 23:10:00,
2009-11-07 15:20:00,52.4,42.5,28.47,North,0,0.0,0.0,69,0.00,CLR,FEW,0.00,WeatherDisplay:10.37,2009-11-07 23:20:00,
2009-11-07 15:30:00,52.2,42.7,28.47,North,0,0.0,2.0,70,0.00,CLR,FEW,0.00,WeatherDisplay:10.37,2009-11-07 23:30:00,
2009-11-07 15:40:00,52.0,42.9,28.47,North,0,0.0,0.0,71,0.00,CLR,FEW,0.00,WeatherDisplay:10.37,2009-11-07 23:40:00,
2009-11-07 15:50:00,51.8,43.1,28.47,North,0,0.0,0.0,72,0.00,CLR,FEW,0.00,WeatherDisplay:10.37,2009-11-07 23:50:00,
2009-11-07 16:00:00,51.6,42.9,28.47,North,0,0.0,0.0,72,0.00,CLR,FEW,0.00,WeatherDisplay:10.37,2009-11-08 00:00:00,
2009-11-07 16:05:00,51.6,42.9,28.47,North,0,0.0,0.0,72,0.00,CLR,FEW,0.00,WeatherDisplay:10.37,2009-11-08 00:05:00,
2009-11-07 16:15:00,51.6,42.9,28.47,North,0,0.0,0.0,72,0.00,CLR,FEW,0.00,WeatherDisplay:10.37,2009-11-08 00:15:00,
2009-11-07 16:20:00,51.6,42.5,28.47,North,0,0.0,0.0,71,0.00,CLR,FEW,0.00,WeatherDisplay:10.37,2009-11-08 00:20:00,
2009-11-07 16:30:00,51.6,42.5,28.47,North,0,0.0,0.0,71,0.00,CLR,FEW,0.00,WeatherDisplay:10.37,2009-11-08 00:30:00,
2009-11-07 16:40:00,51.4,42.7,28.47,North,0,0.0,0.0,72,0.00,CLR,FEW,0.00,WeatherDisplay:10.37,2009-11-08 00:40:00,
2009-11-07 16:50:00,51.3,42.5,28.47,North,0,0.0,0.0,72,0.00,CLR,FEW,0.00,WeatherDisplay:10.37,2009-11-08 00:50:00,
2009-11-07 17:00:00,51.1,42.4,28.47,North,0,0.0,0.0,72,0.00,CLR,FEW,0.00,WeatherDisplay:10.37,2009-11-08 01:00:00,
2009-11-07 17:05:00,51.1,42.4,28.47,North,0,0.0,0.0,72,0.00,CLR,FEW,0.00,WeatherDisplay:10.37,2009-11-08 01:05:00,
2009-11-07 17:10:00,51.1,42.4,28.47,North,0,0.0,0.0,72,0.00,CLR,FEW,0.00,WeatherDisplay:10.37,2009-11-08 01:10:00,
2009-11-07 17:20:00,51.1,42.4,28.47,North,0,2.0,3.0,72,0.00,CLR,FEW,0.00,WeatherDisplay:10.37,2009-11-08 01:20:00,
2009-11-07 17:30:00,51.1,42.4,28.47,North,0,0.0,4.0,72,0.00,CLR,FEW,0.00,WeatherDisplay:10.37,2009-11-08 01:30:00,
2009-11-07 17:40:00,51.3,42.2,28.47,North,0,0.0,3.0,71,0.00,CLR,FEW,0.00,WeatherDisplay:10.37,2009-11-08 01:40:00,
2009-11-07 17:55:00,51.4,42.0,28.47,North,0,0.0,3.0,70,0.00,CLR,FEW,0.00,WeatherDisplay:10.37,2009-11-08 01:55:00,
2009-11-07 18:00:00,51.4,42.0,28.47,North,0,1.0,3.0,70,0.00,CLR,FEW,0.00,WeatherDisplay:10.37,2009-11-08 02:00:00,
2009-11-07 18:06:00,51.3,42.2,28.50,North,0,3.1,3.1,71,0.00,CLR,FEW,0.00,WeatherDisplay:10.37,2009-11-08 02:06:00,
2009-11-07 18:15:00,50.9,41.5,28.50,North,0,0.0,3.0,70,0.00,CLR,FEW,0.00,WeatherDisplay:10.37,2009-11-08 02:15:00,
2009-11-07 18:20:00,51.1,41.6,28.50,North,0,0.0,3.0,70,0.00,CLR,FEW,0.00,WeatherDisplay:10.37,2009-11-08 02:20:00,
2009-11-07 18:30:00,51.1,41.3,28.50,North,0,0.0,3.0,69,0.00,CLR,FEW,0.00,WeatherDisplay:10.37,2009-11-08 02:30:00,
2009-11-07 18:40:00,50.7,41.7,28.50,North,0,0.0,3.0,71,0.00,CLR,FEW,0.00,WeatherDisplay:10.37,2009-11-08 02:40:00,
2009-11-07 18:55:00,49.8,41.9,28.50,North,0,2.0,3.0,74,0.00,CLR,FEW,0.00,WeatherDisplay:10.37,2009-11-08 02:55:00,
2009-11-07 19:00:00,49.6,42.0,28.50,North,0,0.0,3.0,75,0.00,CLR,FEW,0.00,WeatherDisplay:10.37,2009-11-08 03:00:00,
2009-11-07 19:05:00,49.6,42.0,28.50,North,0,0.0,2.0,75,0.00,CLR,FEW,0.00,WeatherDisplay:10.37,2009-11-08 03:05:00,
2009-11-07 19:10:00,49.8,41.9,28.50,North,0,0.0,0.0,74,0.00,CLR,FEW,0.00,WeatherDisplay:10.37,2009-11-08 03:10:00,
2009-11-07 19:20:00,49.9,41.6,28.50,North,0,0.0,0.0,73,0.00,CLR,FEW,0.00,WeatherDisplay:10.37,2009-11-08 03:20:00,
2009-11-07 19:30:00,49.6,41.7,28.50,North,0,0.0,3.0,74,0.00,CLR,FEW,0.00,WeatherDisplay:10.37,2009-11-08 03:30:00,
2009-11-07 19:45:00,50.3,40.6,28.50,North,0,0.0,2.0,69,0.00,CLR,FEW,0.00,WeatherDisplay:10.37,2009-11-08 03:45:00,
2009-11-07 19:50:00,50.7,39.8,28.53,North,0,0.0,3.0,66,0.00,CLR,FEW,0.00,WeatherDisplay:10.37,2009-11-08 03:50:00,
2009-11-07 20:00:00,51.3,39.1,28.53,North,0,0.0,3.0,63,0.00,CLR,FEW,0.00,WeatherDisplay:10.37,2009-11-08 04:00:00,
2009-11-07 20:05:00,51.3,38.7,28.53,North,0,0.0,0.0,62,0.00,CLR,FEW,0.00,WeatherDisplay:10.37,2009-11-08 04:05:00,
2009-11-07 20:15:00,51.3,37.8,28.53,North,0,0.0,0.0,60,0.00,CLR,FEW,0.00,WeatherDisplay:10.37,2009-11-08 04:15:00,
2009-11-07 20:25:00,51.3,37.4,28.53,North,0,0.0,0.0,59,0.00,CLR,FEW,0.00,WeatherDisplay:10.37,2009-11-08 04:25:00,
2009-11-07 20:30:00,51.1,37.7,28.53,North,0,0.0,0.0,60,0.00,CLR,FEW,0.00,WeatherDisplay:10.37,2009-11-08 04:30:00,
2009-11-07 20:45:00,51.1,37.2,28.53,North,0,0.0,0.0,59,0.00,CLR,FEW,0.00,WeatherDisplay:10.37,2009-11-08 04:45:00,
2009-11-07 20:50:00,51.1,37.7,28.53,North,0,0.0,0.0,60,0.00,CLR,FEW,0.00,WeatherDisplay:10.37,2009-11-08 04:50:00,
2009-11-07 21:00:00,51.3,37.4,28.53,North,0,0.0,2.0,59,0.00,CLR,FEW,0.00,WeatherDisplay:10.37,2009-11-08 05:00:00,
2009-11-07 21:01:00,51.3,37.4,28.53,North,0,0.0,0.0,59,0.00,CLR,FEW,0.00,WeatherDisplay:10.37,2009-11-08 05:01:00,
2009-11-07 21:02:00,51.1,37.2,28.53,North,0,0.0,0.0,59,0.00,CLR,FEW,0.00,WeatherDisplay:10.37,2009-11-08 05:02:00,
2009-11-07 21:08:00,50.9,37.1,28.53,North,0,0.0,0.0,59,0.00,CLR,FEW,0.00,WeatherDisplay:10.37,2009-11-08 05:08:00,
2009-11-07 21:15:00,50.9,37.1,28.53,North,0,0.0,0.0,59,0.00,CLR,FEW,0.00,WeatherDisplay:10.37,2009-11-08 05:15:00,
2009-11-07 21:20:00,50.9,37.1,28.53,North,0,0.0,0.0,59,0.00,CLR,FEW,0.00,WeatherDisplay:10.37,2009-11-08 05:20:00,
2009-11-07 21:30:00,50.7,37.3,28.53,North,0,0.0,0.0,60,0.00,CLR,FEW,0.00,WeatherDisplay:10.37,2009-11-08 05:30:00,
2009-11-07 21:40:00,50.4,37.4,28.53,North,0,0.0,0.0,61,0.00,CLR,FEW,0.00,WeatherDisplay:10.37,2009-11-08 05:40:00,
2009-11-07 21:50:00,50.2,38.1,28.53,North,0,0.0,0.0,63,0.00,CLR,FEW,0.00,WeatherDisplay:10.37,2009-11-08 05:50:00,
2009-11-07 22:00:00,50.0,37.9,28.53,North,0,0.0,0.0,63,0.00,CLR,FEW,0.00,WeatherDisplay:10.37,2009-11-08 06:00:00,
2009-11-07 22:05:00,49.9,37.8,28.53,North,0,0.0,0.0,63,0.00,CLR,FEW,0.00,WeatherDisplay:10.37,2009-11-08 06:05:00,
2009-11-07 22:10:00,50.0,37.9,28.53,North,0,0.0,0.0,63,0.00,CLR,FEW,0.00,WeatherDisplay:10.37,2009-11-08 06:10:00,
2009-11-07 22:20:00,49.8,38.1,28.53,North,0,0.0,0.0,64,0.00,CLR,FEW,0.00,WeatherDisplay:10.37,2009-11-08 06:20:00,
2009-11-07 22:30:00,49.8,38.9,28.53,North,0,0.0,0.0,66,0.00,CLR,FEW,0.00,WeatherDisplay:10.37,2009-11-08 06:30:00,
2009-11-07 22:40:00,49.5,39.0,28.53,North,0,0.0,0.0,67,0.00,CLR,FEW,0.00,WeatherDisplay:10.37,2009-11-08 06:40:00,
2009-11-07 22:55:00,48.9,39.6,28.50,North,0,0.0,0.0,70,0.00,CLR,FEW,0.00,WeatherDisplay:10.37,2009-11-08 06:55:00,
2009-11-07 23:00:00,48.7,40.1,28.50,North,0,0.0,0.0,72,0.00,CLR,FEW,0.00,WeatherDisplay:10.37,2009-11-08 07:00:00,
2009-11-07 23:05:00,48.7,40.5,28.50,North,0,0.0,0.0,73,0.00,CLR,FEW,0.00,WeatherDisplay:10.37,2009-11-08 07:05:00,
2009-11-07 23:10:00,48.7,40.5,28.50,North,0,0.0,0.0,73,0.00,CLR,FEW,0.00,WeatherDisplay:10.37,2009-11-08 07:10:00,
2009-11-07 23:20:00,48.6,40.6,28.50,North,0,0.0,0.0,74,0.00,CLR,FEW,0.00,WeatherDisplay:10.37,2009-11-08 07:20:00,
2009-11-07 23:30:00,48.4,40.8,28.50,North,0,0.0,0.0,75,0.00,CLR,FEW,0.00,WeatherDisplay:10.37,2009-11-08 07:30:00,
2009-11-07 23:40:00,48.2,41.0,28.50,North,0,0.0,0.0,76,0.00,CLR,FEW,0.00,WeatherDisplay:10.37,2009-11-08 07:40:00,
2009-11-07 23:50:00,47.8,41.6,28.50,North,0,0.0,0.0,79,0.00,CLR,FEW,0.00,WeatherDisplay:10.37,2009-11-08 07:50:00,